Rbgn^[z[y[W
メイン
   新天体発見情報
     Comet P/2020 R5 (PANSTARRS)
投稿するにはまず登録を

スレッド表示 | 新しいものから 前のトピック | 次のトピック | 下へ
投稿者 スレッド
佐藤裕久
投稿日時: 2020-9-23 15:07
モデレータ
登録日: 2005-6-12
居住地: 日本
投稿: 2505
オンライン
Comet P/2020 R5 (PANSTARRS)

Y. Ramanjooloo、R. WerykとR. Wainscoat (ハワイ大学, 天文学研究所)の通報によると、9月
14.4日UT、ハワイ HaleakalaにあるPan-STARRS2 1.8-m Ritchey-Chretien反射望遠鏡で得た、
4枚の45秒露出から、p.a. 230°に向かって6"の尾のある彗星を発見した。
1".4のシーイングで頭部は1".7(半値全幅:FWHM)であった。
小惑星センターのPCCP webpageに公表後、J. G. Ries (Texas大学)は、9月17.4日UT、J. W. Kuehne
と彼がMcDonald天文台の 2.1-m反射望遠鏡で得た、いくつかのi-バンドCCD画像から、南西に
向いている約7"のハッキリとした尾が見えると書き込んだ。

彗星機能の報告は次の通り:

OC   Date        Reporter           Coma    Tail    PA          Exposures
F52  2020-09-16  Y. Ramanjooloo     2".35     6"    235           4x45s
F51  2020-09-17  Y. Ramanjooloo     2".3      7"    235           4x45s
G96  2020-09-18  K. Wierzchos       4"       20"    240           4x30s
L01  2020-09-18  K. Korlevic        8"       24"    232

発見位置は次のとおり、

     2020 UT             R.A. (2000) Decl.       Mag.
     Sept.14.43333    1 05 00.59   +23 14 46.3   20.5
          14.44366    1 05 00.30   +23 14 46.1   20.4
          14.45405    1 05 00.03   +23 14 45.8   20.5
          14.46439    1 04 59.73   +23 14 45.6   20.4

MPCの楕円軌道要素、位置推算表は次のとおり、

Orbital elements:
    P/2020 R5 (PANSTARRS)                                                       
Epoch 2020 May 31.0 TT = JDT 2459000.5                                          
T 2020 May 28.08730 TT                                  Rudenko                 
q   3.4130453            (2000.0)            P               Q                  
n   0.08872285     Peri.   82.30150     +0.97688396     +0.07978946             
a   4.9786590      Node   272.96886     -0.15486967     +0.90364912             
e   0.3144649      Incl.   11.45440     +0.14735368     +0.42077536             
P  11.1                                                                         
From 57 observations 2019 May 30-2020 Sept. 18, mean residual 0".2.             
                                                                                
    P/2020 R5 (PANSTARRS)                                                       
Epoch 2031 Aug. 2.0 TT = JDT 2463080.5                                          
T 2031 July 22.62834 TT                                 Rudenko                 
q   3.4219999            (2000.0)            P               Q                  
n   0.08838387     Peri.   82.91112     +0.97758442     +0.07065986             
a   4.9913808      Node   272.89598     -0.14638678     +0.90516408             
e   0.3144182      Incl.   11.45431     +0.15132615     +0.41914815             
P  11.2                                                                         
From 57 observations 2019 May 30-2020 Sept. 18, mean residual 0".2.             
                                                                                
    P/2020 R5 (PANSTARRS)                                                       
Epoch 2020 May 31.0 TT = JDT 2459000.5                                          
T 2020 May 28.08730 TT                                  Rudenko                 
q   3.4130453            (2000.0)            P               Q                  
n   0.08872285     Peri.   82.30150     +0.97688396     +0.07978946             
a   4.9786590      Node   272.96886     -0.15486967     +0.90364912             
e   0.3144649      Incl.   11.45440     +0.14735368     +0.42077536             
P  11.1                                                                         
From 57 observations 2019 May 30-2020 Sept. 18, mean residual 0".2.             
                                                                                
Ephemeris:
Date    TT    R. A. (2000) Decl.     Delta      r    Elong.  Phase   m1
2020 08 20    01 11 04.4 +22 39 13   2.8085  3.4409   121.0    14.6  19.8
...
2020 09 04    01 08 48.1 +23 12 05   2.6654  3.4516   134.9    12.0  19.7
...
2020 09 12    01 06 02.3 +23 15 43   2.6051  3.4580   142.5    10.2  19.7
...
2020 09 18    01 03 21.6 +23 11 37   2.5688  3.4631   148.1     8.8  19.6
2020 09 19    01 02 52.3 +23 10 21   2.5636  3.4640   149.1     8.6  19.6
2020 09 20    01 02 22.3 +23 08 56   2.5586  3.4649   150.0     8.3  19.6
...
2020 09 26    00 59 10.3 +22 57 00   2.5338  3.4704   155.4     6.9  19.6
...
2020 10 04    00 54 32.8 +22 32 36   2.5151  3.4781   161.5     5.2  19.6
...
2020 10 19    00 45 48.8 +21 25 15   2.5274  3.4937   163.4     4.7  19.7

(MPEC 2020-S99、CBET 4851)

スレッド表示 | 新しいものから 前のトピック | 次のトピック | トップ

投稿するにはまず登録を
 
© 1999 Tsutomu Seki.